Time,TemperatureF,DewpointF,PressureIn,WindDirection,WindDirectionDegrees,WindSpeedMPH,WindSpeedGustMPH,Humidity,HourlyPrecipIn,Conditions,Clouds,dailyrainin,SoftwareType,DateUTC
2013-10-03 07:52:00,53.0,52.0,29.87,ENE,58,3.0,8.0,96,0.00,,,0.36,,2013-10-03 12:52:00,
2013-10-03 08:11:00,53.0,52.0,29.88,ENE,75,2.0,6.0,96,0.00,,,0.36,,2013-10-03 13:11:00,
2013-10-03 08:22:00,53.0,52.0,29.89,East,79,2.0,4.0,96,0.00,,,0.36,,2013-10-03 13:22:00,
2013-10-03 08:42:00,53.0,52.0,29.88,ENE,57,3.0,7.0,96,0.00,,,0.36,,2013-10-03 13:42:00,
2013-10-03 08:52:00,53.0,52.0,29.88,NE,51,4.0,8.0,96,0.00,,,0.36,,2013-10-03 13:52:00,
2013-10-03 09:11:00,53.0,52.0,29.88,NE,40,3.0,8.0,96,0.00,,,0.36,,2013-10-03 14:11:00,
2013-10-03 09:22:00,53.0,52.0,29.88,NE,44,3.0,9.0,96,0.00,,,0.36,,2013-10-03 14:22:00,
2013-10-03 09:42:00,53.0,52.0,29.88,East,100,3.0,6.0,96,0.00,,,0.36,,2013-10-03 14:42:00,
2013-10-03 09:52:00,53.0,52.0,29.88,ENE,59,4.0,10.0,96,0.00,,,0.36,,2013-10-03 14:52:00,
2013-10-03 10:11:00,54.0,53.0,29.88,NE,48,5.0,9.0,96,0.00,,,0.36,,2013-10-03 15:11:00,
2013-10-03 10:22:00,54.0,53.0,29.88,ENE,73,4.0,9.0,96,0.00,,,0.36,,2013-10-03 15:22:00,
2013-10-03 10:43:00,54.0,53.0,29.88,ENE,75,4.0,9.0,96,0.00,,,0.36,,2013-10-03 15:43:00,
2013-10-03 10:54:00,54.0,53.0,29.88,East,98,3.0,6.0,96,0.00,,,0.36,,2013-10-03 15:54:00,
2013-10-03 11:12:00,54.0,53.0,29.88,ENE,72,3.0,6.0,96,0.00,,,0.36,,2013-10-03 16:12:00,
2013-10-03 11:23:00,54.0,53.0,29.87,ENE,61,6.0,8.0,96,0.00,,,0.36,,2013-10-03 16:23:00,
2013-10-03 11:42:00,54.0,53.0,29.87,NE,34,2.0,6.0,96,0.00,,,0.36,,2013-10-03 16:42:00,
2013-10-03 11:53:00,54.0,53.0,29.86,ENE,72,5.0,8.0,96,0.00,,,0.36,,2013-10-03 16:53:00,
2013-10-03 12:03:00,54.0,53.0,29.86,ENE,72,5.0,8.0,96,0.00,,,0.36,,2013-10-03 17:03:00,
2013-10-03 12:12:00,54.0,53.0,29.86,ENE,72,5.0,8.0,96,0.00,,,0.36,,2013-10-03 17:12:00,
2013-10-03 12:22:00,54.0,53.0,29.86,ENE,72,5.0,8.0,96,0.00,,,0.36,,2013-10-03 17:22:00,
2013-10-03 12:52:00,54.0,53.0,29.87,ESE,105,4.0,6.0,96,0.01,,,0.37,,2013-10-03 17:52:00,
2013-10-03 13:12:00,54.0,53.0,29.88,NNE,32,2.0,6.0,96,0.01,,,0.37,,2013-10-03 18:12:00,
2013-10-03 13:22:00,55.0,54.0,29.89,East,79,1.0,7.0,96,0.02,,,0.38,,2013-10-03 18:22:00,
2013-10-03 13:42:00,55.0,54.0,29.88,NE,37,3.0,5.0,96,0.01,,,0.38,,2013-10-03 18:42:00,
2013-10-03 13:52:00,55.0,54.0,29.89,NE,36,2.0,5.0,96,0.01,,,0.38,,2013-10-03 18:52:00,
2013-10-03 14:11:00,55.0,54.0,29.88,NNE,19,6.0,7.0,96,0.01,,,0.38,,2013-10-03 19:11:00,
2013-10-03 14:22:00,55.0,54.0,29.87,NE,44,7.0,10.0,96,0.00,,,0.38,,2013-10-03 19:22:00,
2013-10-03 14:42:00,55.0,54.0,29.87,NNE,22,6.0,12.0,96,0.01,,,0.39,,2013-10-03 19:42:00,
2013-10-03 14:52:00,55.0,54.0,29.87,East,83,6.0,12.0,96,0.01,,,0.39,,2013-10-03 19:52:00,
2013-10-03 15:11:00,55.0,54.0,29.87,NNE,17,5.0,14.0,96,0.01,,,0.39,,2013-10-03 20:11:00,
2013-10-03 15:21:00,55.0,54.0,29.87,ENE,59,5.0,8.0,96,0.01,,,0.39,,2013-10-03 20:21:00,
2013-10-03 15:42:00,55.0,54.0,29.87,SE,146,7.0,11.0,95,0.00,,,0.39,,2013-10-03 20:42:00,
2013-10-03 15:52:00,55.0,54.0,29.87,ENE,77,5.0,11.0,95,0.00,,,0.39,,2013-10-03 20:52:00,
2013-10-03 16:12:00,55.0,54.0,29.87,NE,56,5.0,9.0,95,0.00,,,0.39,,2013-10-03 21:12:00,
2013-10-03 16:21:00,55.0,53.0,29.86,NE,46,6.0,14.0,94,0.00,,,0.39,,2013-10-03 21:21:00,
2013-10-03 16:43:00,55.0,53.0,29.85,NE,51,7.0,13.0,94,0.00,,,0.39,,2013-10-03 21:43:00,
2013-10-03 16:54:00,55.0,53.0,29.86,NNE,29,5.0,14.0,94,0.00,,,0.39,,2013-10-03 21:54:00,
2013-10-03 17:04:00,55.0,53.0,29.86,NNE,29,5.0,14.0,94,0.00,,,0.39,,2013-10-03 22:04:00,
2013-10-03 17:13:00,55.0,53.0,29.86,NNE,29,5.0,14.0,94,0.00,,,0.39,,2013-10-03 22:13:00,
2013-10-03 17:23:00,55.0,53.0,29.86,NNE,29,5.0,14.0,94,0.00,,,0.39,,2013-10-03 22:23:00,
2013-10-03 17:54:00,55.0,53.0,29.87,ENE,59,5.0,11.0,94,0.00,,,0.39,,2013-10-03 22:54:00,
2013-10-03 18:12:00,55.0,53.0,29.88,East,82,4.0,8.0,94,0.00,,,0.39,,2013-10-03 23:12:00,
2013-10-03 18:22:00,55.0,53.0,29.88,ESE,111,4.0,11.0,94,0.00,,,0.35,,2013-10-03 23:22:00,
2013-10-03 18:43:00,55.0,53.0,29.87,ENE,66,6.0,10.0,94,0.00,,,0.35,,2013-10-03 23:43:00,
2013-10-03 18:52:00,55.0,53.0,29.88,NNE,27,6.0,8.0,94,0.00,,,0.35,,2013-10-03 23:52:00,
2013-10-03 19:12:00,55.0,53.0,29.88,SE,127,4.0,8.0,94,0.00,,,0.35,,2013-10-04 00:12:00,
2013-10-03 19:22:00,55.0,53.0,29.88,East,90,2.0,7.0,94,0.00,,,0.34,,2013-10-04 00:22:00,
2013-10-03 19:42:00,55.0,53.0,29.88,East,100,3.0,10.0,94,0.00,,,0.34,,2013-10-04 00:42:00,
2013-10-03 19:52:00,55.0,53.0,29.88,ENE,77,3.0,10.0,94,0.00,,,0.34,,2013-10-04 00:52:00,
2013-10-03 20:02:00,55.0,53.0,29.88,ENE,77,3.0,10.0,94,0.00,,,0.34,,2013-10-04 01:02:00,
2013-10-03 20:12:00,55.0,53.0,29.88,ENE,77,3.0,10.0,94,0.00,,,0.34,,2013-10-04 01:12:00,
2013-10-03 20:22:00,55.0,53.0,29.88,ENE,77,3.0,10.0,94,0.00,,,0.34,,2013-10-04 01:22:00,
2013-10-03 22:12:00,54.0,52.0,29.93,ENE,58,5.0,12.0,93,0.00,,,0.09,,2013-10-04 03:12:00,
2013-10-03 22:22:00,54.0,52.0,29.93,NE,36,5.0,10.0,93,0.00,,,0.03,,2013-10-04 03:22:00,
2013-10-03 22:44:00,54.0,52.0,29.94,NNE,23,6.0,10.0,93,0.00,,,0.03,,2013-10-04 03:44:00,
2013-10-03 23:00:00,54.0,52.0,29.94,ENE,70,6.0,10.0,93,0.00,,,0.03,,2013-10-04 04:00:00,